Location: Campitello
(42.5264°N, 9.3197°E)
Time: 12:51:11
(UTC+00:00)

Daily predictions for brighter satellites

Satellite Brightness Start Highest point End
(mag) Time Altitude Azimuth Time Altitude Azimuth Time Altitude Azimuth
Meteor 2-10 4.3 16:39:27 10° NNW 16:44:34 74° W 16:49:34 10° S
Helios 1A Rocket 4.1 16:40:45 10° S 16:44:39 49° W 16:48:35 10° NNW
Cosmos 1898 Rocket 4.4 16:45:01 10° SW 16:50:12 51° WNW 16:55:23 10° N
SJ 16-02 2.6 16:46:25 10° SW 16:50:36 42° WNW 16:54:49 10° N
Cosmos 2150 Rocket 4.3 16:46:13 10° S 16:51:07 45° ESE 16:56:02 10° NNE
Cosmos 2181 Rocket 4.3 16:46:08 10° N 16:52:35 82° W 16:59:01 10° S
Alouette 2 Rocket 4.5 16:50:40 10° N 16:55:04 46° ENE 17:01:34 10° SSE
Meteor 2-5 Rocket 3.7 16:51:24 10° S 16:56:54 75° E 17:02:27 10° NNE
SKYMED 2 4.3 16:53:10 10° NNE 16:57:06 32° E 17:01:00 10° SSE
AQUARIUS 4.2 16:53:15 10° SSE 16:57:44 88° WSW 17:02:16 10° NNW
Meteor 1-24 Rocket 3.7 16:53:27 10° S 16:58:36 55° E 17:03:49 10° NNE
Cosmos 1340 Rocket 4.2 16:55:51 10° NNE 16:58:40 18° ENE 17:01:27 10° ESE
Cosmos 2333 Rocket 2.6 16:53:44 10° NNW 16:59:10 42° ENE 17:04:31 10° SE
Cosmos 2228 3.8 16:54:59 10° NNW 16:59:15 56° W 17:03:26 10° S
Cosmos 1892 Rocket 4.0 16:57:07 10° SSW 17:01:34 70° W 17:06:03 10° N
CZ-4C R/B 3.4 16:55:27 10° NNW 17:01:58 37° NE 17:09:21 10° ESE
Cosmos 1937 Rocket 4.3 16:57:42 10° SW 17:02:49 54° WNW 17:08:00 10° NNE
Cosmos 2322 Rocket 4.1 16:58:19 10° NW 17:03:26 35° WSW 17:08:32 10° SSW
Cosmos 2237 Rocket 3.5 17:01:57 10° N 17:05:56 19° NE 17:09:54 10° E
Cosmos 1939 Rocket 4.3 17:03:46 10° ESE 17:06:15 17° ENE 17:08:46 10° NNE
Okean 1-7 Rocket 4.2 17:05:32 10° SSW 17:09:52 61° W 17:14:14 10° N
SL-14 R/B 3.6 17:06:53 10° SSE 17:10:44 46° E 17:14:35 10° NNE
Cosmos 1812 Rocket 4.3 17:08:01 10° NNE 17:12:01 32° ENE 17:16:02 10° SE
Cosmos 1908 3.7 17:08:30 10° NNW 17:12:22 65° W 17:16:09 10° S
Cosmos 1674 3.6 17:09:44 10° SSW 17:13:22 50° W 17:17:01 10° N
FengYun 1-2 T 4.3 17:07:56 10° SSE 17:13:26 59° ENE 17:18:58 10° N
Cosmos 2074 Rocket 4.0 17:07:12 10° S 17:13:29 85° E 17:19:49 10° N
USA 234 4.5 17:09:02 10° SSE 17:15:13 45° SW 17:21:27 10° WNW
RESURS DK-1 4.4 17:11:48 10° NW 17:15:33 33° WSW 17:19:16 10° S
Cosmos 1125 Rocket 3.9 17:11:25 10° S 17:16:16 42° ESE 17:21:09 10° NNE
H-2A ROCKET BODY 4.0 17:07:44 10° WSW 17:18:04 25° SSW 17:21:56 10° SE
YAOGAN 1 3.2 17:14:26 10° SE 17:18:19 33° ENE 17:22:12 10° N
Cosmos 1300 3.0 17:15:28 10° N 17:19:08 43° ENE 17:22:45 10° SSE
Cosmos 1271 Rocket 2.6 17:19:38 10° S 17:23:22 89° E 17:27:08 10° N
SL-16 R/B 4.0 17:21:55 10° NNE 17:23:49 12° NE 17:23:51 12° NE
Cosmos 2058 Rocket 4.0 17:21:21 10° NNW 17:25:35 51° W 17:29:48 10° S
Cosmos 2219 4.1 17:21:41 10° SSE 17:26:23 28° ESE 17:29:32 17° ENE
USA 116 4.1 17:25:23 20° NE 17:26:51 28° E 17:29:37 10° SSE
CZ-4 R/B 1.5 17:23:17 10° SSE 17:27:07 50° ENE 17:31:05 10° N
Starlink AQ 2.5 17:25:23 10° SW 17:28:12 85° NNW 17:29:34 27° NE
CSL-04 Rocket 3.9 17:23:21 10° SE 17:28:30 45° ENE 17:33:45 10° N
Meteor 2-1 Rocket 4.4 17:25:11 10° N 17:30:26 43° ENE 17:35:40 10° SE
Starlink AS 2.5 17:28:03 10° WSW 17:30:52 79° NNW 17:32:06 29° NE
Envisat 3.4 17:25:56 10° S 17:30:58 68° WSW 17:36:03 10° NNW
Starlink BA 2.6 17:28:12 10° WSW 17:31:00 79° NW 17:32:15 29° NE
Starlink AU 2.6 17:28:25 10° WSW 17:31:12 79° NW 17:32:26 30° NE
Starlink AT 2.6 17:28:35 10° WSW 17:31:24 78° NNW 17:32:37 30° NE
Starlink BB 2.6 17:28:46 10° WSW 17:31:34 78° NW 17:32:47 30° NE
Starlink BC 2.6 17:28:58 10° WSW 17:31:46 77° NW 17:32:58 30° NE
Starlink BK 2.6 17:29:08 10° WSW 17:31:56 77° NW 17:33:08 30° NE
Starlink AY 2.6 17:29:19 10° WSW 17:32:06 77° NW 17:33:19 30° NE
Starlink AW 2.6 17:29:28 10° WSW 17:32:16 77° NW 17:33:29 30° NE
Starlink BJ 2.6 17:29:39 10° WSW 17:32:26 76° NW 17:33:37 31° NE
Starlink AV 2.6 17:29:49 10° WSW 17:32:37 76° NW 17:33:48 31° NE
Starlink BD 2.6 17:30:01 10° WSW 17:32:49 75° NNW 17:33:59 31° NE
Starlink BE 2.6 17:30:09 10° WSW 17:32:57 75° NW 17:34:08 31° NE
Starlink BM 2.6 17:30:22 10° WSW 17:33:09 75° NW 17:34:19 31° NE
Starlink AX 2.6 17:30:30 10° WSW 17:33:19 75° NW 17:34:29 31° NE
Starlink BH 2.6 17:30:41 10° WSW 17:33:30 74° NW 17:34:40 31° NE
Starlink AZ 2.6 17:30:54 10° WSW 17:33:43 74° NW 17:34:51 32° NE
Starlink BG 2.6 17:31:06 10° WSW 17:33:55 73° NW 17:35:02 32° NE
Cosmos 2333 4.4 17:28:12 10° NNW 17:33:56 79° WSW 17:39:35 10° SSE
Starlink BF 2.6 17:31:17 10° WSW 17:34:05 73° NW 17:35:13 32° NE
Starlink BL 2.7 17:31:23 10° WSW 17:34:12 73° NW 17:35:21 32° NE
Starlink AH 2.6 17:31:37 10° WSW 17:34:24 72° NW 17:35:31 32° NE
Starlink AC 2.7 17:31:45 10° WSW 17:34:34 72° NW 17:35:41 32° NE
Timation 2 Rocket 3.9 17:28:40 10° SSW 17:34:41 81° ESE 17:40:59 10° NNE
Starlink X 2.7 17:31:58 10° WSW 17:34:46 72° NW 17:35:52 32° NE
Nadezhda 3 Rocket 3.9 17:28:33 10° N 17:34:48 71° E 17:41:06 10° SSE
Starlink AE 2.7 17:32:08 10° WSW 17:34:56 72° NW 17:36:02 32° NE
Starlink Z 2.7 17:32:20 10° WSW 17:35:08 71° NW 17:36:13 33° NE
Starlink AK 2.7 17:32:32 10° WSW 17:35:20 71° NW 17:36:25 33° NE
Starlink AL 2.7 17:32:43 10° WSW 17:35:31 70° NW 17:36:36 33° NE
Starlink AD 2.7 17:32:52 10° WSW 17:35:40 70° NW 17:36:44 33° NE
Cosmos 2322 4.1 17:30:14 10° NNW 17:35:51 67° WSW 17:41:27 10° SSE
Okean-O 3.1 17:31:37 10° S 17:36:00 64° W 17:40:24 10° NNW
Starlink Y 2.7 17:33:15 10° WSW 17:36:03 69° NW 17:37:06 33° NE
Starlink AG 2.7 17:33:26 10° WSW 17:36:14 69° NW 17:37:16 34° NE
Starlink W 2.7 17:33:32 10° WSW 17:36:22 69° NW 17:37:26 33° NE
Starlink AJ 2.7 17:33:46 10° WSW 17:36:34 69° NW 17:37:36 34° NE
Starlink AM 2.7 17:34:07 10° WSW 17:36:55 68° NW 17:37:56 34° NE
Starlink AP 2.7 17:34:18 10° WSW 17:37:06 68° NW 17:38:07 34° NE
Starlink AA 2.7 17:34:29 10° WSW 17:37:17 67° NW 17:38:18 34° NE
Starlink AF 2.8 17:34:40 10° WSW 17:37:29 67° NW 17:38:30 34° NE
Starlink AB 2.8 17:34:53 10° WSW 17:37:40 67° NW 17:38:40 35° NE
Starlink AN 2.8 17:35:01 10° WSW 17:37:49 66° NW 17:38:49 35° NE
Cosmos 1602 Rocket 3.4 17:33:27 10° S 17:37:52 77° E 17:42:15 10° N
Cosmos 1048 Rocket 3.8 17:34:18 10° NNW 17:39:27 75° ENE 17:44:33 10° SSE
ATLAS 5 CENTAUR R/B 3.3 17:36:09 10° WSW 17:39:51 28° NW 17:43:55 10° NNE
BREEZE-M DEB (TANK) 2.2 17:39:11 10° SW 17:41:32 50° SSE 17:41:54 44° ESE
Cosmos-2242 4.4 17:38:35 10° NNE 17:40:36 20° NE 17:40:36 20° NE
NOAA 15 4.5 17:39:30 10° SSE 17:44:43 70° ENE 17:49:58 10° N
COSMO-SKYMED 1 2.7 17:40:57 10° N 17:45:19 75° WNW 17:49:38 10° SSW
Cosmos 2297 Rocket 3.0 17:41:54 10° SSE 17:46:41 29° ESE 17:47:59 26° E
Cosmos 2341 Rocket 4.1 17:40:33 10° SSE 17:46:44 55° E 17:52:55 10° NNE
Starlink T 3.1 17:44:41 10° WSW 17:47:29 53° NNW 17:48:07 41° NNE
Cosmos 1980 4.1 17:42:22 10° N 17:47:41 39° ENE 17:51:18 19° ESE
Starlink N 3.2 17:45:46 10° WSW 17:48:33 51° NNW 17:49:09 41° NNE
Starlink Q 3.2 17:46:49 10° WSW 17:49:36 50° NNW 17:50:09 41° N
Starlink P 3.2 17:47:53 10° WSW 17:50:39 49° NNW 17:51:11 42° N
Starlink U 3.2 17:48:58 10° WSW 17:51:44 48° NNW 17:52:13 42° N
Cosmos 1626 2.7 17:49:05 10° SSW 17:52:43 56° W 17:56:23 10° N
Starlink B 3.3 17:49:58 10° WSW 17:52:45 47° NNW 17:53:11 42° N
Starlink D 3.3 17:51:03 10° WSW 17:53:49 46° NNW 17:54:13 42° N
Cosmos 1758 Rocket 3.7 17:50:07 10° SSE 17:54:15 48° E 17:56:04 29° NE
COSMOS 2428 2.8 17:48:42 10° NNW 17:54:29 82° WSW 18:00:12 10° SSE
Cosmos 2360 Rocket 4.5 17:49:59 10° NW 17:54:35 26° WSW 17:59:10 10° SSW
Starlink S 3.3 17:52:09 10° WSW 17:54:55 45° NNW 17:55:16 42° N
Starlink C 3.4 17:53:13 10° WSW 17:55:58 44° NNW 17:56:17 41° N
Starlink E 3.4 17:54:20 10° WSW 17:57:05 43° NNW 17:57:22 41° NNW
Starlink J 3.5 17:55:26 10° WSW 17:58:12 42° NNW 17:58:27 41° NNW
Cosmos 2227 Rocket 2.8 17:53:14 10° SSE 17:58:13 33° ESE 17:58:54 32° E
Starlink V 3.5 17:56:32 10° WSW 17:59:17 41° NNW 17:59:28 40° NNW
NOAA 11 4.1 17:54:20 10° SSE 17:59:49 78° ENE 18:05:20 10° N
SL-8 Rocket 4.1 17:53:58 10° SSE 18:00:00 50° E 18:06:02 10° NNE
Starlink H 3.5 17:57:41 10° WSW 18:00:24 40° NNW 18:00:33 40° NNW
Starlink F 3.6 17:58:48 10° WSW 18:01:32 39° NNW 18:01:38 39° NNW
YAOGAN 6 4.5 17:59:05 10° SSW 18:02:27 33° W 18:05:49 10° NNW
Starlink G 3.7 17:59:56 10° WSW 18:02:39 38° NNW 18:02:43 38° NNW
Starlink L 3.7 18:01:03 10° W 18:03:47 37° NNW 18:03:48 37° NNW
Cosmos 2219 Rocket 2.6 17:58:57 10° NNW 18:04:35 66° WSW 18:10:10 10° S
Starlink A 3.8 18:02:12 10° W 18:04:53 37° NNW 18:04:53 37° NNW
Starlink R 3.8 18:03:21 10° W 18:05:59 36° NNW 18:05:59 36° NNW
Starlink AR 4.2 18:03:46 10° W 18:05:37 28° NW 18:05:37 28° NW
Starlink K 3.9 18:04:27 10° W 18:07:02 35° NW 18:07:02 35° NW
Starlink M 4.0 18:05:32 10° W 18:08:04 34° NW 18:08:04 34° NW
Cosmos 1461 3.4 18:07:13 10° NW 18:11:31 62° WSW 18:15:58 10° SSE
NOSS 0 Rocket 3.8 18:07:19 10° NNW 18:13:36 84° ENE 18:19:47 10° SSE
Ariane Rocket 3.1 18:13:03 41° ESE 18:14:18 51° ENE 18:19:13 10° N
ADEOS Rocket 3.2 18:14:04 13° NNE 18:19:56 62° ESE 18:26:57 10° S
TIMED 4.5 18:15:55 10° NNW 18:20:19 82° WSW 18:23:41 17° SSE
DELTA 2 R/B (1) 4.1 18:15:15 10° SW 18:20:32 44° SSE 18:21:36 40° SE
Cosmos 1825 Rocket 3.4 18:17:08 10° S 18:21:30 87° ESE 18:22:33 52° NNE
Cosmos 2218 Rocket 3.9 18:18:28 10° S 18:24:41 65° E 18:30:59 10° NNE
Cosmos 494 Rocket 4.0 18:20:27 10° NNW 18:25:35 77° WSW 18:30:40 10° SSE
USA 32 4.4 18:20:55 10° SSW 18:26:05 63° W 18:31:18 10° N
CZ-2D R/B 4.1 18:25:51 10° S 18:29:33 50° W 18:33:17 10° NNW
Meteor 1-21 Rocket 4.3 18:27:21 10° SSW 18:32:53 74° W 18:38:26 11° N
Cosmos 1339 Rocket 4.3 18:33:19 10° N 18:39:25 84° E 18:45:32 10° S
Cosmos 864 Rocket 4.3 18:34:44 10° S 18:40:51 78° E 18:43:29 37° NNE
Cosmos 1939 Rocket 4.2 18:37:16 10° SSW 18:40:53 37° W 18:44:33 10° NNW
Cosmos 1241 Rocket 4.4 18:34:46 10° NNW 18:41:00 85° WSW 18:43:34 38° SSE
Cosmos 2333 Rocket 4.1 18:38:21 10° NW 18:43:14 30° WSW 18:48:04 10° SSW
Cosmos 2237 Rocket 2.3 18:45:00 10° NNW 18:50:37 74° WSW 18:52:01 51° S
CZ-4C R/B 3.3 18:43:43 10° NW 18:51:02 65° WSW 18:59:15 10° SSE
Meteor 2-10 Rocket 4.0 18:59:00 10° NNW 19:03:45 59° WNW 19:03:45 59° WNW
Cosmos 2366 rocket 4.2 18:59:53 10° SSW 19:06:00 66° W 19:09:55 24° N
SL-16 R/B 3.8 19:03:33 10° NNW 19:05:46 24° N 19:05:46 24° N
Cosmos 2219 4.2 19:05:01 10° SW 19:10:18 42° WNW 19:11:31 37° NNW
FALCON 9 R/B 4.4 19:02:36 10° SW 19:11:06 22° S 19:11:18 22° S
Cosmos 2297 Rocket 3.3 19:25:12 10° SW 19:29:51 40° WNW 19:29:51 40° WNW
Cosmos 2227 Rocket 3.7 19:36:56 10° SW 19:40:47 33° W 19:40:47 33° W
